Wind_Speed
19 20 22 23 28 35 42 44 46 52 53 58 63 69 73 78 85 94 99 98 79 73 77 90 103 127 140 146 145 139 142 135 123 115 105 110 115 122 122 111 102 102 102 102 93
19 22 25 29 34 38 36 42 47 51 55 58 66 71 77 81 87 95 92 80 65 59 62 70 80 94 115 139 145 144 144 145 119 115 112 107 111 117 121 115 108 101 103 104 96
24 28 32 32 29 34 41 44 48 52 56 60 68 73 80 82 91 99 81 67 56 51 52 57 67 79 90 106 135 149 141 145 129 131 116 110 115 117 121 117 110 104 101 93 92
26 29 32 29 30 39 45 46 49 54 59 67 71 78 85 88 96 103 84 63 53 47 46 48 58 69 77 85 103 129 142 140 136 132 120 116 118 118 115 109 108 111 110 103 97
33 31 29 28 34 46 50 52 55 59 67 67 75 82 88 91 99 105 87 71 59 44 40 42 50 58 66 75 85 97 110 134 135 137 135 111 122 116 112 110 111 112 114 108 105
29 29 33 31 40 51 48 53 61 64 67 72 79 86 90 95 99 108 94 76 65 46 37 34 40 46 54 63 66 79 92 109 126 137 142 114 116 121 115 110 108 107 108 113 111
40 36 41 46 51 48 47 55 64 65 68 76 80 85 92 98 100 105 96 79 63 46 33 27 31 37 44 52 58 66 79 96 108 123 128 119 119 116 112 106 101 103 100 103 109
39 39 43 45 49 47 51 57 64 65 71 77 82 87 90 95 96 103 99 78 58 43 27 18 23 26 35 42 49 57 73 83 95 111 113 123 118 115 111 105 92 103 102 99 100
42 40 43 44 46 48 55 59 64 70 73 77 85 90 90 92 93 98 102 79 56 39 24 13 15 19 29 36 40 53 65 75 83 98 105 117 119 119 106 97 89 92 97 100 97
44 48 46 47 50 54 60 61 68 72 77 79 83 88 87 87 89 93 101 75 53 33 21 9 9 17 24 28 36 48 59 68 78 84 75 106 106 118 109 98 78 87 88 85 87
50 49 50 52 56 56 64 64 70 70 74 80 83 85 86 82 86 87 94 70 53 29 24 12 3 16 31 37 39 48 56 65 68 73 90 96 101 115 103 90 73 77 83 84 81
54 53 51 54 58 60 61 66 66 69 73 78 80 83 85 80 82 80 87 71 55 32 25 23 5 15 27 36 41 46 55 67 80 80 83 76 90 101 101 84 75 67 84 80 82
57 55 54 53 56 60 61 64 67 67 72 74 74 77 83 76 76 75 81 83 55 40 30 28 17 10 23 35 46 54 62 77 74 70 78 79 86 95 96 82 74 67 70 85 82
61 59 60 59 60 61 56 63 68 71 71 68 63 70 80 72 73 71 74 81 65 44 34 26 26 12 22 39 47 62 67 72 66 61 66 72 77 90 93 82 75 66 64 72 83
60 62 61 61 64 62 59 62 66 70 70 65 59 65 73 67 70 65 67 73 78 54 35 32 27 26 14 38 55 74 75 72 70 71 61 58 73 91 91 73 73 58 70 70 71
62 67 67 68 67 65 66 59 62 59 65 59 53 59 66 62 64 60 60 62 69 68 48 36 35 28 16 34 52 64 76 74 75 72 63 52 74 85 78 67 66 75 71 73 76
64 73 74 73 66 67 64 59 62 56 61 56 44 53 57 58 58 53 52 55 59 62 62 49 33 33 26 11 31 47 74 73 68 69 59 56 69 82 88 86 89 80 71 77 71
68 68 70 67 67 61 62 62 56 55 58 47 46 53 56 51 56 47 41 43 48 53 53 53 44 26 27 19 9 17 59 71 67 58 51 53 64 87 96 86 91 86 84 77 73
60 56 55 56 57 56 53 51 49 47 45 47 43 55 47 44 49 41 42 37 38 39 44 42 41 42 23 20 10 23 41 49 61 68 70 59 54 79 105 101 95 87 81 79 74
46 46 46 48 48 47 48 50 49 49 47 48 46 46 34 34 41 36 37 35 35 31 30 33 32 35 43 20 22 18 32 40 51 62 70 66 56 63 94 105 104 90 83 83 79
50 50 50 52 52 50 48 47 46 44 41 41 37 30 29 21 39 36 34 32 29 29 24 23 26 27 32 33 24 15 12 29 40 48 61 56 49 60 74 100 101 99 96 89 84
46 47 50 53 55 52 51 50 48 46 44 40 34 33 16 23 35 38 30 30 28 26 24 20 21 22 21 22 23 26 17 11 23 33 48 52 55 51 60 86 91 95 94 100 97
55 58 58 55 52 52 50 48 46 45 39 37 36 35 30 29 35 25 31 34 29 22 24 19 15 12 11 12 15 17 17 14 11 16 31 46 56 64 66 65 87 93 96 94 94
55 56 56 55 55 54 51 52 48 45 42 39 38 35 36 32 29 34 35 22 36 27 21 20 17 12 7 4 4 8 7 7 8 6 17 27 26 42 59 73 78 91 94 95 96
58 58 61 61 60 59 54 55 55 52 48 44 43 42 41 40 36 31 34 35 28 38 28 24 23 19 14 10 6 4 5 5 3 7 2 9 25 41 49 53 61 66 73 92 98
67 64 66 64 66 67 62 61 60 58 57 53 48 48 50 46 40 39 35 38 38 36 39 30 29 26 25 19 15 11 10 13 11 13 13 12 10 16 14 20 43 61 73 79 90
73 69 71 71 73 72 72 70 65 61 60 56 51 46 47 49 50 47 44 41 40 41 47 37 36 34 31 29 24 17 21 23 21 19 19 16 25 14 8 11 11 9 9 32 50
Wind_Direction
324 313 311 306 304 305 306 304 301 307 312 313 313 314 311 310 306 305 310 295 285 275 262 252 245 238 238 238 234 231 232 233 233 225 223 226 229 233 233 233 234 233 234 241 241
321 322 320 312 307 307 312 315 316 319 321 321 325 319 316 315 317 316 324 306 297 286 267 254 246 242 236 232 234 232 230 232 228 225 219 217 223 229 232 231 232 234 236 237 238
319 318 313 309 316 324 329 324 320 326 326 325 325 322 324 326 324 328 330 315 308 291 271 256 245 240 236 232 231 229 231 231 225 226 220 215 219 224 231 231 230 229 230 228 232
322 322 322 321 325 331 332 328 326 326 326 326 326 329 331 333 334 337 338 331 321 299 277 258 244 236 235 230 229 229 228 227 223 225 218 216 220 221 226 227 225 227 227 228 229
325 327 323 321 325 331 330 327 326 329 329 329 332 336 337 338 341 343 344 341 331 310 284 259 245 238 232 229 227 225 225 223 220 224 223 213 219 219 222 222 222 222 227 228 231
320 321 326 318 323 327 327 325 328 329 333 333 335 339 340 343 343 345 347 343 334 319 293 269 249 235 231 229 225 222 220 220 220 220 224 213 215 217 219 219 221 223 226 228 231
315 311 315 317 321 326 326 325 330 332 333 334 338 342 344 345 345 347 350 346 333 323 304 276 253 233 226 223 218 216 214 218 218 215 219 212 212 217 217 219 219 220 224 229 232
320 316 313 316 321 323 325 327 331 332 334 336 341 343 345 348 348 349 351 349 337 328 314 286 253 230 218 210 203 202 206 209 206 209 216 216 216 213 216 218 217 221 223 226 229
327 322 322 325 325 324 328 333 334 334 337 338 339 343 345 348 350 351 353 352 345 338 328 302 254 221 205 197 194 196 200 201 204 208 211 220 213 211 213 214 217 221 222 224 226
332 331 326 329 328 326 329 334 337 334 335 340 341 342 345 348 352 354 354 353 349 350 346 320 227 196 178 183 188 192 192 196 196 200 204 217 211 211 211 214 213 217 215 219 220
332 329 325 323 326 329 334 333 335 336 339 341 341 341 347 350 353 356 357 354 352 6 31 24 112 171 168 175 184 186 189 187 187 194 199 208 204 205 207 207 206 212 213 214 214
333 331 328 323 322 323 330 329 332 333 338 345 341 338 344 349 353 358 1 1 0 14 37 30 33 161 164 172 181 185 184 177 182 190 198 198 201 200 202 199 205 209 214 211 215
332 325 324 324 323 323 323 321 327 332 332 338 338 338 338 347 353 358 2 7 10 19 28 47 38 139 161 166 172 177 180 175 186 190 194 199 200 195 196 193 198 199 208 213 214
319 327 324 322 324 321 326 324 320 324 330 334 338 332 334 346 351 358 2 7 16 21 37 42 55 33 171 162 172 174 180 184 170 188 189 196 196 194 195 192 196 200 206 211 215
319 316 319 317 317 319 316 318 321 323 326 330 335 331 335 344 347 358 1 7 10 26 38 53 56 61 167 162 170 170 178 186 177 182 188 202 196 191 189 189 197 213 211 210 211
310 313 315 313 316 311 316 316 319 324 326 331 333 333 333 343 344 356 359 7 11 17 30 59 63 66 70 167 170 175 182 186 178 179 184 191 193 191 176 182 186 203 208 210 211
307 309 310 311 309 309 311 314 314 319 322 328 335 325 332 339 340 355 359 4 8 14 27 34 62 71 76 91 187 190 184 186 188 185 178 198 197 183 180 186 193 200 200 208 209
306 305 305 306 308 307 307 307 310 315 317 322 329 326 334 333 334 350 358 3 7 9 21 31 37 69 84 94 140 200 190 192 183 183 180 194 204 186 187 192 193 198 203 203 207
308 309 310 311 309 307 308 309 314 315 318 326 322 321 331 327 331 345 353 354 2 10 13 27 35 45 81 107 153 184 205 205 199 184 184 187 196 193 193 199 201 205 208 210 211
314 313 312 313 313 311 312 317 318 318 315 316 314 317 318 324 324 337 345 349 347 0 10 13 27 40 50 77 119 145 189 208 208 205 199 200 204 207 198 201 206 208 209 214 214
327 321 315 315 318 313 313 314 315 316 316 320 319 314 319 321 308 322 332 341 340 344 354 4 17 29 45 49 61 111 140 204 210 209 206 201 208 203 207 204 206 209 213 213 217
325 323 318 311 312 313 309 308 307 311 314 312 315 316 301 293 296 309 318 321 332 331 334 347 360 20 45 49 55 61 102 126 223 217 216 210 210 216 216 211 211 214 216 216 218
323 324 321 318 315 311 309 307 307 308 307 306 311 309 302 283 291 297 299 297 311 313 321 320 329 352 16 51 58 56 60 72 163 190 211 222 224 220 214 220 218 215 216 220 223
323 324 321 321 318 311 307 303 302 295 294 293 292 290 291 288 284 285 275 272 285 294 292 298 288 299 314 349 66 83 79 71 63 100 204 205 215 228 231 228 227 222 220 223 225
325 324 324 318 315 317 311 304 301 298 291 283 279 280 280 277 276 276 277 274 266 274 281 273 274 268 263 253 236 222 165 164 186 128 62 193 222 221 218 221 229 236 236 230 227
326 322 318 322 318 315 312 310 303 300 295 288 282 272 270 268 262 263 265 269 268 248 267 266 263 253 257 252 243 228 230 214 218 193 213 213 212 209 202 231 239 242 240 241 240
328 324 326 324 317 314 311 309 308 305 299 294 287 278 265 266 263 258 252 254 263 248 252 257 252 252 247 249 245 241 232 234 223 215 214 209 236 216 228 255 277 297 283 254 252
Height
10677 10674 10671 10667 10662 10658 10652 10645 10639 10631 10621 10610 10599 10585 10572 10555 10534 10511 10481 10439 10423 10408 10397 10399 10401 10413 10429 10443 10457 10470 10479 10502 10547 10587 10618 10620 10620 10626 10649 10678 10697 10719 10728 10734 10749
10671 10668 10663 10659 10654 10649 10642 10636 10628 10618 10608 10596 10584 10569 10552 10533 10509 10480 10443 10406 10387 10373 10366 10367 10369 10377 10386 10404 10418 10435 10456 10476 10522 10551 10580 10598 10595 10603 10624 10661 10680 10705 10714 10726 10738
10666 10661 10657 10652 10648 10641 10633 10625 10615 10605 10595 10583 10569 10552 10532 10510 10482 10446 10412 10383 10361 10350 10342 10340 10340 10346 10355 10372 10389 10405 10432 10456 10490 10512 10554 10573 10567 10582 10603 10636 10670 10684 10693 10707 10719
10661 10656 10650 10644 10640 10632 10624 10614 10605 10595 10583 10569 10553 10534 10512 10488 10459 10419 10387 10359 10342 10329 10322 10320 10318 10321 10331 10346 10354 10376 10411 10426 10466 10484 10521 10551 10552 10563 10589 10632 10645 10652 10668 10684 10701
10656 10650 10643 10637 10631 10624 10614 10605 10595 10583 10570 10554 10537 10518 10495 10468 10436 10399 10365 10345 10328 10316 10308 10303 10301 10306 10312 10323 10336 10361 10388 10407 10446 10466 10487 10531 10522 10559 10582 10602 10614 10630 10655 10671 10688
10650 10644 10638 10631 10623 10615 10605 10594 10583 10572 10558 10541 10523 10503 10479 10454 10424 10389 10357 10335 10318 10305 10296 10292 10291 10293 10299 10309 10331 10351 10370 10394 10420 10447 10459 10511 10511 10538 10562 10580 10602 10628 10640 10654 10675
10643 10637 10630 10624 10617 10608 10597 10586 10573 10560 10547 10530 10512 10491 10468 10444 10416 10385 10353 10329 10312 10297 10287 10282 10281 10284 10290 10299 10315 10335 10358 10369 10400 10432 10442 10481 10501 10525 10553 10573 10596 10613 10627 10645 10663
10637 10631 10624 10617 10609 10600 10590 10578 10563 10551 10537 10521 10504 10485 10463 10439 10413 10381 10351 10327 10308 10291 10281 10275 10275 10278 10284 10293 10308 10325 10340 10362 10383 10410 10436 10454 10504 10519 10543 10567 10589 10602 10620 10633 10647
10631 10625 10617 10609 10600 10591 10581 10569 10556 10542 10529 10513 10497 10480 10460 10438 10414 10385 10352 10326 10307 10290 10279 10274 10274 10277 10285 10294 10307 10321 10335 10358 10376 10402 10418 10446 10488 10505 10535 10560 10577 10593 10610 10620 10635
10625 10618 10610 10601 10593 10583 10573 10560 10549 10534 10520 10506 10491 10477 10458 10437 10414 10387 10357 10330 10311 10293 10282 10276 10275 10279 10287 10299 10309 10323 10342 10358 10379 10406 10425 10438 10469 10493 10529 10553 10569 10582 10597 10609 10623
10619 10610 10603 10595 10586 10575 10564 10553 10542 10528 10514 10500 10485 10471 10455 10435 10414 10393 10365 10339 10318 10301 10289 10285 10283 10285 10290 10297 10308 10320 10342 10364 10379 10397 10415 10424 10449 10484 10517 10538 10556 10571 10583 10597 10606
10611 10603 10594 10585 10577 10567 10556 10546 10535 10523 10508 10496 10481 10466 10453 10436 10419 10400 10374 10348 10326 10309 10298 10296 10295 10296 10301 10306 10310 10325 10339 10361 10378 10388 10408 10423 10443 10479 10506 10531 10551 10565 10576 10585 10598
10603 10595 10587 10577 10568 10559 10550 10539 10528 10518 10506 10494 10479 10465 10452 10439 10423 10406 10384 10362 10338 10317 10311 10305 10307 10309 10312 10318 10321 10334 10348 10364 10379 10395 10408 10420 10439 10471 10499 10519 10538 10553 10564 10576 10591
10594 10587 10578 10569 10560 10551 10543 10531 10522 10512 10502 10491 10479 10464 10453 10439 10426 10411 10393 10371 10351 10333 10320 10318 10315 10319 10322 10325 10332 10348 10360 10370 10387 10398 10413 10420 10440 10464 10494 10515 10535 10549 10559 10571 10583
10584 10577 10569 10560 10553 10544 10535 10527 10517 10505 10497 10489 10477 10465 10452 10442 10429 10417 10405 10385 10370 10351 10336 10328 10327 10328 10333 10331 10340 10352 10366 10375 10387 10401 10415 10425 10440 10460 10487 10514 10534 10548 10555 10564 10575
10573 10565 10559 10551 10543 10534 10527 10521 10512 10503 10492 10484 10475 10465 10453 10444 10435 10420 10411 10401 10384 10370 10354 10340 10338 10342 10348 10349 10349 10357 10366 10376 10391 10403 10416 10425 10443 10462 10492 10514 10524 10529 10543 10557 10568
10561 10554 10546 10539 10532 10524 10518 10512 10506 10496 10487 10480 10472 10465 10454 10445 10438 10433 10419 10407 10400 10390 10375 10362 10353 10353 10357 10363 10366 10364 10374 10382 10392 10405 10418 10428 10442 10471 10485 10497 10508 10523 10536 10548 10557
10547 10540 10534 10526 10519 10512 10507 10501 10496 10489 10483 10474 10468 10462 10455 10446 10439 10434 10432 10423 10410 10402 10394 10385 10375 10365 10363 10371 10374 10379 10382 10390 10398 10411 10426 10433 10446 10471 10484 10490 10497 10509 10519 10530 10543
10533 10526 10521 10513 10507 10502 10496 10492 10486 10482 10476 10469 10464 10458 10452 10446 10441 10433 10428 10428 10425 10416 10407 10400 10394 10386 10376 10376 10385 10389 10392 10397 10404 10414 10422 10433 10443 10464 10479 10485 10493 10505 10519 10533 10542
10524 10516 10510 10504 10497 10492 10487 10481 10476 10473 10467 10463 10459 10453 10449 10444 10439 10435 10431 10425 10425 10423 10419 10414 10408 10400 10392 10385 10384 10389 10396 10401 10409 10416 10426 10434 10443 10455 10470 10479 10490 10501 10515 10524 10532
10513 10507 10501 10495 10489 10482 10477 10473 10467 10464 10460 10455 10451 10447 10444 10441 10436 10434 10431 10428 10424 10422 10421 10419 10415 10408 10399 10396 10394 10394 10397 10401 10408 10416 10423 10433 10441 10449 10458 10470 10481 10489 10498 10507 10516
10505 10498 10491 10484 10479 10473 10467 10462 10458 10453 10450 10448 10445 10441 10439 10437 10433 10429 10428 10426 10424 10421 10419 10417 10415 10411 10408 10407 10405 10401 10402 10403 10405 10412 10423 10429 10437 10442 10450 10462 10474 10482 10487 10493 10500
10493 10487 10478 10471 10466 10460 10455 10451 10448 10444 10441 10439 10436 10433 10431 10430 10427 10425 10423 10423 10421 10420 10417 10415 10416 10415 10414 10412 10411 10409 10407 10408 10409 10414 10419 10425 10431 10435 10442 10449 10460 10467 10475 10483 10491
10482 10475 10467 10459 10453 10449 10443 10437 10435 10432 10430 10427 10426 10424 10421 10420 10420 10419 10416 10416 10416 10415 10415 10415 10413 10412 10413 10413 10410 10410 10411 10412 10413 10415 10416 10420 10424 10428 10435 10441 10447 10455 10463 10469 10476
10471 10464 10456 10447 10439 10434 10428 10422 10418 10416 10413 10412 10412 10409 10407 10407 10408 10408 10406 10406 10406 10407 10408 10408 10408 10409 10409 10410 10411 10411 10410 10411 10413 10416 10419 10416 10418 10421 10423 10429 10436 10444 10446 10450 10458
10457 10450 10442 10434 10425 10418 10410 10406 10401 10397 10393 10392 10392 10392 10390 10390 10393 10394 10394 10394 10396 10397 10397 10400 10400 10401 10402 10404 10404 10407 10409 10411 10411 10412 10415 10417 10420 10421 10423 10427 10429 10428 10428 10434 10444
10439 10432 10425 10422 10410 10400 10393 10386 10383 10377 10374 10370 10370 10372 10373 10372 10373 10377 10379 10380 10381 10383 10384 10387 10389 10391 10394 10395 10399 10403 10403 10403 10405 10407 10410 10412 10411 10415 10418 10418 10419 10419 10419 10423 10427